#datetime,building,power
2022-05-29T00:00:00,ths,11.07
2022-05-29T00:01:00,ths,12.45
2022-05-29T00:02:00,ths,8.86
2022-05-29T00:03:00,ths,7.08
2022-05-29T00:04:00,ths,6.36
2022-05-29T00:05:00,ths,6.28
2022-05-29T00:06:00,ths,8.52
2022-05-29T00:07:00,ths,8.31
2022-05-29T00:08:00,ths,8.29
2022-05-29T00:09:00,ths,8.28
2022-05-29T00:10:00,ths,8.36
2022-05-29T00:11:00,ths,8.25
2022-05-29T00:12:00,ths,8.57
2022-05-29T00:13:00,ths,8.55
2022-05-29T00:14:00,ths,8.36
2022-05-29T00:15:00,ths,8.38
2022-05-29T00:16:00,ths,8.44
2022-05-29T00:17:00,ths,8.55
2022-05-29T00:18:00,ths,8.53
2022-05-29T00:19:00,ths,8.44
2022-05-29T00:20:00,ths,8.49
2022-05-29T00:21:00,ths,8.47
2022-05-29T00:22:00,ths,8.47
2022-05-29T00:23:00,ths,8.60
2022-05-29T00:24:00,ths,6.54
2022-05-29T00:25:00,ths,6.23
2022-05-29T00:26:00,ths,6.17
2022-05-29T00:27:00,ths,6.12
2022-05-29T00:28:00,ths,6.02
2022-05-29T00:29:00,ths,5.96
2022-05-29T00:30:00,ths,5.99
2022-05-29T00:31:00,ths,5.99
2022-05-29T00:32:00,ths,8.53
2022-05-29T00:33:00,ths,8.38
2022-05-29T00:34:00,ths,8.43
2022-05-29T00:35:00,ths,8.34
2022-05-29T00:36:00,ths,8.41
2022-05-29T00:37:00,ths,10.86
2022-05-29T00:38:00,ths,10.83
2022-05-29T00:39:00,ths,10.71
2022-05-29T00:40:00,ths,8.44
2022-05-29T00:41:00,ths,8.74
2022-05-29T00:42:00,ths,8.68
2022-05-29T00:43:00,ths,8.50
2022-05-29T00:44:00,ths,8.53
2022-05-29T00:45:00,ths,8.60
2022-05-29T00:46:00,ths,8.53
2022-05-29T00:47:00,ths,6.44
2022-05-29T00:48:00,ths,6.35
2022-05-29T00:49:00,ths,6.39
2022-05-29T00:50:00,ths,6.31
2022-05-29T00:51:00,ths,6.35
2022-05-29T00:52:00,ths,6.41
2022-05-29T00:53:00,ths,6.33
2022-05-29T00:54:00,ths,6.41
2022-05-29T00:55:00,ths,6.39
2022-05-29T00:56:00,ths,6.36
2022-05-29T00:57:00,ths,8.12
2022-05-29T00:58:00,ths,7.58
2022-05-29T00:59:00,ths,6.39
2022-05-29T01:00:00,ths,6.36
2022-05-29T01:01:00,ths,6.40
2022-05-29T01:02:00,ths,6.37
2022-05-29T01:03:00,ths,6.36
2022-05-29T01:04:00,ths,6.38
2022-05-29T01:05:00,ths,7.39
2022-05-29T01:06:00,ths,6.37
2022-05-29T01:07:00,ths,6.36
2022-05-29T01:08:00,ths,6.43
2022-05-29T01:09:00,ths,6.41
2022-05-29T01:10:00,ths,10.94
2022-05-29T01:11:00,ths,10.96
2022-05-29T01:12:00,ths,10.91
2022-05-29T01:13:00,ths,10.72
2022-05-29T01:14:00,ths,10.53
2022-05-29T01:15:00,ths,10.61
2022-05-29T01:16:00,ths,10.54
2022-05-29T01:17:00,ths,10.56
2022-05-29T01:18:00,ths,10.70
2022-05-29T01:19:00,ths,10.69
2022-05-29T01:20:00,ths,10.84
2022-05-29T01:21:00,ths,6.63
2022-05-29T01:22:00,ths,10.90
2022-05-29T01:23:00,ths,10.98
2022-05-29T01:24:00,ths,10.97
2022-05-29T01:25:00,ths,10.79
2022-05-29T01:26:00,ths,6.60
2022-05-29T01:27:00,ths,10.68
2022-05-29T01:28:00,ths,10.65
2022-05-29T01:29:00,ths,10.59
2022-05-29T01:30:00,ths,6.50
2022-05-29T01:31:00,ths,8.99
2022-05-29T01:32:00,ths,12.97
2022-05-29T01:33:00,ths,13.07
2022-05-29T01:34:00,ths,9.20
2022-05-29T01:35:00,ths,9.27
2022-05-29T01:36:00,ths,13.28
2022-05-29T01:37:00,ths,13.28
2022-05-29T01:38:00,ths,7.13
2022-05-29T01:39:00,ths,6.47
2022-05-29T01:40:00,ths,6.46
2022-05-29T01:41:00,ths,10.54
2022-05-29T01:42:00,ths,6.40
2022-05-29T01:43:00,ths,6.32
2022-05-29T01:44:00,ths,6.35
2022-05-29T01:45:00,ths,10.48
2022-05-29T01:46:00,ths,10.50
2022-05-29T01:47:00,ths,6.42
2022-05-29T01:48:00,ths,6.52
2022-05-29T01:49:00,ths,10.61
2022-05-29T01:50:00,ths,10.54
2022-05-29T01:51:00,ths,6.48
2022-05-29T01:52:00,ths,6.46
2022-05-29T01:53:00,ths,6.45
2022-05-29T01:54:00,ths,12.85
2022-05-29T01:55:00,ths,9.27
2022-05-29T01:56:00,ths,9.22
2022-05-29T01:57:00,ths,9.01
2022-05-29T01:58:00,ths,12.74
2022-05-29T01:59:00,ths,8.65
2022-05-29T02:00:00,ths,8.65
2022-05-29T02:01:00,ths,12.67
2022-05-29T02:02:00,ths,12.62
2022-05-29T02:03:00,ths,8.73
2022-05-29T02:04:00,ths,8.60
2022-05-29T02:05:00,ths,12.69
2022-05-29T02:06:00,ths,12.59
2022-05-29T02:07:00,ths,8.18
2022-05-29T02:08:00,ths,8.47
2022-05-29T02:09:00,ths,12.80
2022-05-29T02:10:00,ths,8.89
2022-05-29T02:11:00,ths,12.70
2022-05-29T02:12:00,ths,9.93
2022-05-29T02:13:00,ths,8.59
2022-05-29T02:14:00,ths,12.69
2022-05-29T02:15:00,ths,8.52
2022-05-29T02:16:00,ths,10.63
2022-05-29T02:17:00,ths,10.82
2022-05-29T02:18:00,ths,12.17
2022-05-29T02:19:00,ths,14.88
2022-05-29T02:20:00,ths,10.74
2022-05-29T02:21:00,ths,10.80
2022-05-29T02:22:00,ths,15.45
2022-05-29T02:23:00,ths,10.99
2022-05-29T02:24:00,ths,10.87
2022-05-29T02:25:00,ths,10.86
2022-05-29T02:26:00,ths,12.33
2022-05-29T02:27:00,ths,13.05
2022-05-29T02:28:00,ths,9.04
2022-05-29T02:29:00,ths,11.03
2022-05-29T02:30:00,ths,16.26
2022-05-29T02:31:00,ths,10.79
2022-05-29T02:32:00,ths,10.85
2022-05-29T02:33:00,ths,14.88
2022-05-29T02:34:00,ths,10.99
2022-05-29T02:35:00,ths,9.09
2022-05-29T02:36:00,ths,13.04
2022-05-29T02:37:00,ths,12.97
2022-05-29T02:38:00,ths,14.55
2022-05-29T02:39:00,ths,12.52
2022-05-29T02:40:00,ths,11.09
2022-05-29T02:41:00,ths,17.19
2022-05-29T02:42:00,ths,12.95
2022-05-29T02:43:00,ths,12.90
2022-05-29T02:44:00,ths,15.06
2022-05-29T02:45:00,ths,10.94
2022-05-29T02:46:00,ths,12.75
2022-05-29T02:47:00,ths,16.88
2022-05-29T02:48:00,ths,10.94
2022-05-29T02:49:00,ths,10.98
2022-05-29T02:50:00,ths,17.33
2022-05-29T02:51:00,ths,11.40
2022-05-29T02:52:00,ths,9.65
2022-05-29T02:53:00,ths,9.64
2022-05-29T02:54:00,ths,12.22
2022-05-29T02:55:00,ths,17.82
2022-05-29T02:56:00,ths,13.42
2022-05-29T02:57:00,ths,11.47
2022-05-29T02:58:00,ths,15.81
2022-05-29T02:59:00,ths,9.10
2022-05-29T03:00:00,ths,10.94
2022-05-29T03:01:00,ths,15.20
2022-05-29T03:02:00,ths,9.18
2022-05-29T03:03:00,ths,9.16
2022-05-29T03:04:00,ths,13.34
2022-05-29T03:05:00,ths,11.22
2022-05-29T03:06:00,ths,11.24
2022-05-29T03:07:00,ths,9.24
2022-05-29T03:08:00,ths,7.53
2022-05-29T03:09:00,ths,6.66
2022-05-29T03:10:00,ths,8.57
2022-05-29T03:11:00,ths,8.38
2022-05-29T03:12:00,ths,6.42
2022-05-29T03:13:00,ths,6.35
2022-05-29T03:14:00,ths,6.38
2022-05-29T03:15:00,ths,8.45
2022-05-29T03:16:00,ths,8.15
2022-05-29T03:17:00,ths,8.53
2022-05-29T03:18:00,ths,8.51
2022-05-29T03:19:00,ths,8.66
2022-05-29T03:20:00,ths,10.83
2022-05-29T03:21:00,ths,8.73
2022-05-29T03:22:00,ths,8.85
2022-05-29T03:23:00,ths,8.79
2022-05-29T03:24:00,ths,8.77
2022-05-29T03:25:00,ths,10.71
2022-05-29T03:26:00,ths,8.77
2022-05-29T03:27:00,ths,8.97
2022-05-29T03:28:00,ths,8.41
2022-05-29T03:29:00,ths,8.57
2022-05-29T03:30:00,ths,10.49
2022-05-29T03:31:00,ths,8.49
2022-05-29T03:32:00,ths,8.57
2022-05-29T03:33:00,ths,8.61
2022-05-29T03:34:00,ths,8.31
2022-05-29T03:35:00,ths,8.47
2022-05-29T03:36:00,ths,8.41
2022-05-29T03:37:00,ths,6.42
2022-05-29T03:38:00,ths,8.79
2022-05-29T03:39:00,ths,11.35
2022-05-29T03:40:00,ths,13.20
2022-05-29T03:41:00,ths,13.35
2022-05-29T03:42:00,ths,11.38
2022-05-29T03:43:00,ths,11.31
2022-05-29T03:44:00,ths,8.70
2022-05-29T03:45:00,ths,9.27
2022-05-29T03:46:00,ths,10.22
2022-05-29T03:47:00,ths,6.32
2022-05-29T03:48:00,ths,5.90
2022-05-29T03:49:00,ths,5.87
2022-05-29T03:50:00,ths,7.85
2022-05-29T03:51:00,ths,7.95
2022-05-29T03:52:00,ths,6.02
2022-05-29T03:53:00,ths,6.04
2022-05-29T03:54:00,ths,6.18
2022-05-29T03:55:00,ths,6.17
2022-05-29T03:56:00,ths,6.15
2022-05-29T03:57:00,ths,6.15
2022-05-29T03:58:00,ths,6.13
2022-05-29T03:59:00,ths,6.19
2022-05-29T04:00:00,ths,6.13
2022-05-29T04:01:00,ths,8.06
2022-05-29T04:02:00,ths,6.13
2022-05-29T04:03:00,ths,6.35
2022-05-29T04:04:00,ths,6.36
2022-05-29T04:05:00,ths,6.16
2022-05-29T04:06:00,ths,8.18
2022-05-29T04:07:00,ths,6.23
2022-05-29T04:08:00,ths,6.19
2022-05-29T04:09:00,ths,6.19
2022-05-29T04:10:00,ths,6.17
2022-05-29T04:11:00,ths,8.19
2022-05-29T04:12:00,ths,6.19
2022-05-29T04:13:00,ths,6.25
2022-05-29T04:14:00,ths,6.20
2022-05-29T04:15:00,ths,6.16
2022-05-29T04:16:00,ths,8.13
2022-05-29T04:17:00,ths,8.11
2022-05-29T04:18:00,ths,6.22
2022-05-29T04:19:00,ths,6.22
2022-05-29T04:20:00,ths,6.14
2022-05-29T04:21:00,ths,8.10
2022-05-29T04:22:00,ths,8.08
2022-05-29T04:23:00,ths,6.09
2022-05-29T04:24:00,ths,6.01
2022-05-29T04:25:00,ths,8.62
2022-05-29T04:26:00,ths,8.50
2022-05-29T04:27:00,ths,8.45
2022-05-29T04:28:00,ths,10.85
2022-05-29T04:29:00,ths,9.46
2022-05-29T04:30:00,ths,8.25
2022-05-29T04:31:00,ths,8.22
2022-05-29T04:32:00,ths,8.38
2022-05-29T04:33:00,ths,8.30
2022-05-29T04:34:00,ths,8.08
2022-05-29T04:35:00,ths,6.44
2022-05-29T04:36:00,ths,5.76
2022-05-29T04:37:00,ths,5.68
2022-05-29T04:38:00,ths,5.65
2022-05-29T04:39:00,ths,5.84
2022-05-29T04:40:00,ths,5.75
2022-05-29T04:41:00,ths,5.68
2022-05-29T04:42:00,ths,5.71
2022-05-29T04:43:00,ths,5.69
2022-05-29T04:44:00,ths,5.98
2022-05-29T04:45:00,ths,5.75
2022-05-29T04:46:00,ths,5.69
2022-05-29T04:47:00,ths,5.65
2022-05-29T04:48:00,ths,5.63
2022-05-29T04:49:00,ths,5.64
2022-05-29T04:50:00,ths,5.63
2022-05-29T04:51:00,ths,5.65
2022-05-29T04:52:00,ths,5.66
2022-05-29T04:53:00,ths,5.64
2022-05-29T04:54:00,ths,6.28
2022-05-29T04:55:00,ths,5.73
2022-05-29T04:56:00,ths,5.83
2022-05-29T04:57:00,ths,5.84
2022-05-29T04:58:00,ths,5.81
2022-05-29T04:59:00,ths,5.89
2022-05-29T05:00:00,ths,5.82
2022-05-29T05:01:00,ths,5.76
2022-05-29T05:02:00,ths,5.75
2022-05-29T05:03:00,ths,5.64
2022-05-29T05:04:00,ths,5.65
2022-05-29T05:05:00,ths,5.70
2022-05-29T05:06:00,ths,5.68
2022-05-29T05:07:00,ths,5.71
2022-05-29T05:08:00,ths,5.70
2022-05-29T05:09:00,ths,5.75
2022-05-29T05:10:00,ths,5.76
2022-05-29T05:11:00,ths,8.30
2022-05-29T05:12:00,ths,8.15
2022-05-29T05:13:00,ths,8.16
2022-05-29T05:14:00,ths,6.64
2022-05-29T05:15:00,ths,5.87
2022-05-29T05:16:00,ths,5.59
2022-05-29T05:17:00,ths,5.54
2022-05-29T05:18:00,ths,5.54
2022-05-29T05:19:00,ths,5.52
2022-05-29T05:20:00,ths,5.53
2022-05-29T05:21:00,ths,5.53
2022-05-29T05:22:00,ths,5.69
2022-05-29T05:23:00,ths,5.67
2022-05-29T05:24:00,ths,5.53
2022-05-29T05:25:00,ths,5.53
2022-05-29T05:26:00,ths,5.49
2022-05-29T05:27:00,ths,5.48
2022-05-29T05:28:00,ths,5.48
2022-05-29T05:29:00,ths,5.49
2022-05-29T05:30:00,ths,7.95
2022-05-29T05:31:00,ths,7.80
2022-05-29T05:32:00,ths,7.85
2022-05-29T05:33:00,ths,8.05
2022-05-29T05:34:00,ths,8.08
2022-05-29T05:35:00,ths,7.84
2022-05-29T05:36:00,ths,7.81
2022-05-29T05:37:00,ths,6.07
2022-05-29T05:38:00,ths,5.33
2022-05-29T05:39:00,ths,5.34
2022-05-29T05:40:00,ths,5.32
2022-05-29T05:41:00,ths,5.34
2022-05-29T05:42:00,ths,5.32
2022-05-29T05:43:00,ths,5.32
2022-05-29T05:44:00,ths,5.33
2022-05-29T05:45:00,ths,5.38
2022-05-29T05:46:00,ths,5.40
2022-05-29T05:47:00,ths,5.41
2022-05-29T05:48:00,ths,5.45
2022-05-29T05:49:00,ths,5.57
2022-05-29T05:50:00,ths,5.58
2022-05-29T05:51:00,ths,5.52
2022-05-29T05:52:00,ths,5.66
2022-05-29T05:53:00,ths,5.65
2022-05-29T05:54:00,ths,5.43
2022-05-29T05:55:00,ths,5.34
2022-05-29T05:56:00,ths,5.37
2022-05-29T05:57:00,ths,5.39
2022-05-29T05:58:00,ths,5.46
2022-05-29T05:59:00,ths,5.51
2022-05-29T06:00:00,ths,5.42
2022-05-29T06:01:00,ths,5.61
2022-05-29T06:02:00,ths,5.62
2022-05-29T06:03:00,ths,5.63
2022-05-29T06:04:00,ths,5.66
2022-05-29T06:05:00,ths,5.70
2022-05-29T06:06:00,ths,5.58
2022-05-29T06:07:00,ths,5.56
2022-05-29T06:08:00,ths,5.48
2022-05-29T06:09:00,ths,5.46
2022-05-29T06:10:00,ths,5.52
2022-05-29T06:11:00,ths,5.57
2022-05-29T06:12:00,ths,5.58
2022-05-29T06:13:00,ths,5.66
2022-05-29T06:14:00,ths,5.65
2022-05-29T06:15:00,ths,5.66
2022-05-29T06:16:00,ths,5.56
2022-05-29T06:17:00,ths,5.54
2022-05-29T06:18:00,ths,5.52
2022-05-29T06:19:00,ths,5.58
2022-05-29T06:20:00,ths,5.69
2022-05-29T06:21:00,ths,5.76
2022-05-29T06:22:00,ths,5.71
2022-05-29T06:23:00,ths,5.56
2022-05-29T06:24:00,ths,7.20
2022-05-29T06:25:00,ths,9.51
2022-05-29T06:26:00,ths,9.44
2022-05-29T06:27:00,ths,9.44
2022-05-29T06:28:00,ths,9.55
2022-05-29T06:29:00,ths,7.78
2022-05-29T06:30:00,ths,7.75
2022-05-29T06:31:00,ths,7.81
2022-05-29T06:32:00,ths,6.08
2022-05-29T06:33:00,ths,5.44
2022-05-29T06:34:00,ths,5.45
2022-05-29T06:35:00,ths,5.38
2022-05-29T06:36:00,ths,5.43
2022-05-29T06:37:00,ths,5.50
2022-05-29T06:38:00,ths,5.52
2022-05-29T06:39:00,ths,5.62
2022-05-29T06:40:00,ths,5.52
2022-05-29T06:41:00,ths,5.47
2022-05-29T06:42:00,ths,5.52
2022-05-29T06:43:00,ths,5.54
2022-05-29T06:44:00,ths,5.58
2022-05-29T06:45:00,ths,5.54
2022-05-29T06:46:00,ths,5.59
2022-05-29T06:47:00,ths,5.66
2022-05-29T06:48:00,ths,6.93
2022-05-29T06:49:00,ths,6.89
2022-05-29T06:50:00,ths,7.02
2022-05-29T06:51:00,ths,7.11
2022-05-29T06:52:00,ths,5.69
2022-05-29T06:53:00,ths,5.58
2022-05-29T06:54:00,ths,5.59
2022-05-29T06:55:00,ths,5.60
2022-05-29T06:56:00,ths,5.59
2022-05-29T06:57:00,ths,5.56
2022-05-29T06:58:00,ths,7.15
2022-05-29T06:59:00,ths,5.38
2022-05-29T07:00:00,ths,5.36
2022-05-29T07:01:00,ths,5.61
2022-05-29T07:02:00,ths,5.53
2022-05-29T07:03:00,ths,5.59
2022-05-29T07:04:00,ths,5.60
2022-05-29T07:05:00,ths,5.64
2022-05-29T07:06:00,ths,5.49
2022-05-29T07:07:00,ths,5.51
2022-05-29T07:08:00,ths,5.53
2022-05-29T07:09:00,ths,5.60
2022-05-29T07:10:00,ths,5.72
2022-05-29T07:11:00,ths,5.79
2022-05-29T07:12:00,ths,5.94
2022-05-29T07:13:00,ths,5.89
2022-05-29T07:14:00,ths,5.63
2022-05-29T07:15:00,ths,5.63
2022-05-29T07:16:00,ths,5.65
2022-05-29T07:17:00,ths,5.71
2022-05-29T07:18:00,ths,5.68
2022-05-29T07:19:00,ths,5.67
2022-05-29T07:20:00,ths,5.61
2022-05-29T07:21:00,ths,5.62
2022-05-29T07:22:00,ths,5.53
2022-05-29T07:23:00,ths,6.37
2022-05-29T07:24:00,ths,6.73
2022-05-29T07:25:00,ths,6.59
2022-05-29T07:26:00,ths,6.42
2022-05-29T07:27:00,ths,6.35
2022-05-29T07:28:00,ths,6.31
2022-05-29T07:29:00,ths,5.46
2022-05-29T07:30:00,ths,5.44
2022-05-29T07:31:00,ths,5.48
2022-05-29T07:32:00,ths,5.54
2022-05-29T07:33:00,ths,5.60
2022-05-29T07:34:00,ths,5.61
2022-05-29T07:35:00,ths,5.66
2022-05-29T07:36:00,ths,5.64
2022-05-29T07:37:00,ths,7.62
2022-05-29T07:38:00,ths,6.25
2022-05-29T07:39:00,ths,6.87
2022-05-29T07:40:00,ths,6.87
2022-05-29T07:41:00,ths,6.92
2022-05-29T07:42:00,ths,6.42
2022-05-29T07:43:00,ths,6.40
2022-05-29T07:44:00,ths,6.36
2022-05-29T07:45:00,ths,6.88
2022-05-29T07:46:00,ths,6.46
2022-05-29T07:47:00,ths,6.38
2022-05-29T07:48:00,ths,6.35
2022-05-29T07:49:00,ths,6.38
2022-05-29T07:50:00,ths,6.32
2022-05-29T07:51:00,ths,6.42
2022-05-29T07:52:00,ths,6.40
2022-05-29T07:53:00,ths,5.72
2022-05-29T07:54:00,ths,5.71
2022-05-29T07:55:00,ths,5.78
2022-05-29T07:56:00,ths,5.88
2022-05-29T07:57:00,ths,5.82
2022-05-29T07:58:00,ths,5.72
2022-05-29T07:59:00,ths,5.78
2022-05-29T08:00:00,ths,5.98
2022-05-29T08:01:00,ths,5.87
2022-05-29T08:02:00,ths,5.83
2022-05-29T08:03:00,ths,5.76
2022-05-29T08:04:00,ths,5.64
2022-05-29T08:05:00,ths,5.75
2022-05-29T08:06:00,ths,6.02
2022-05-29T08:07:00,ths,6.07
2022-05-29T08:08:00,ths,6.59
2022-05-29T08:09:00,ths,5.99
2022-05-29T08:10:00,ths,5.83
2022-05-29T08:11:00,ths,5.83
2022-05-29T08:12:00,ths,6.92
2022-05-29T08:13:00,ths,5.79
2022-05-29T08:14:00,ths,5.66
2022-05-29T08:15:00,ths,5.74
2022-05-29T08:16:00,ths,5.76
2022-05-29T08:17:00,ths,6.30
2022-05-29T08:18:00,ths,5.90
2022-05-29T08:19:00,ths,5.85
2022-05-29T08:20:00,ths,5.86
2022-05-29T08:21:00,ths,8.55
2022-05-29T08:22:00,ths,8.58
2022-05-29T08:23:00,ths,8.53
2022-05-29T08:24:00,ths,8.57
2022-05-29T08:25:00,ths,8.61
2022-05-29T08:26:00,ths,6.61
2022-05-29T08:27:00,ths,5.90
2022-05-29T08:28:00,ths,5.88
2022-05-29T08:29:00,ths,5.83
2022-05-29T08:30:00,ths,5.84
2022-05-29T08:31:00,ths,5.90
2022-05-29T08:32:00,ths,5.96
2022-05-29T08:33:00,ths,5.96
2022-05-29T08:34:00,ths,5.98
2022-05-29T08:35:00,ths,10.23
2022-05-29T08:36:00,ths,10.18
2022-05-29T08:37:00,ths,10.20
2022-05-29T08:38:00,ths,10.21
2022-05-29T08:39:00,ths,10.12
2022-05-29T08:40:00,ths,10.09
2022-05-29T08:41:00,ths,10.06
2022-05-29T08:42:00,ths,10.13
2022-05-29T08:43:00,ths,10.11
2022-05-29T08:44:00,ths,10.11
2022-05-29T08:45:00,ths,10.09
2022-05-29T08:46:00,ths,10.28
2022-05-29T08:47:00,ths,10.26
2022-05-29T08:48:00,ths,10.27
2022-05-29T08:49:00,ths,13.01
2022-05-29T08:50:00,ths,13.02
2022-05-29T08:51:00,ths,13.08
2022-05-29T08:52:00,ths,13.00
2022-05-29T08:53:00,ths,13.00
2022-05-29T08:54:00,ths,10.08
2022-05-29T08:55:00,ths,10.11
2022-05-29T08:56:00,ths,10.19
2022-05-29T08:57:00,ths,10.13
2022-05-29T08:58:00,ths,10.05
2022-05-29T08:59:00,ths,12.45
2022-05-29T09:00:00,ths,12.64
2022-05-29T09:01:00,ths,12.38
2022-05-29T09:02:00,ths,12.28
2022-05-29T09:03:00,ths,12.29
2022-05-29T09:04:00,ths,12.24
2022-05-29T09:05:00,ths,12.27
2022-05-29T09:06:00,ths,8.40
2022-05-29T09:07:00,ths,8.35
2022-05-29T09:08:00,ths,8.21
2022-05-29T09:09:00,ths,12.29
2022-05-29T09:10:00,ths,12.30
2022-05-29T09:11:00,ths,12.22
2022-05-29T09:12:00,ths,8.23
2022-05-29T09:13:00,ths,8.18
2022-05-29T09:14:00,ths,10.88
2022-05-29T09:15:00,ths,10.93
2022-05-29T09:16:00,ths,15.07
2022-05-29T09:17:00,ths,15.05
2022-05-29T09:18:00,ths,8.87
2022-05-29T09:19:00,ths,8.27
2022-05-29T09:20:00,ths,8.08
2022-05-29T09:21:00,ths,8.01
2022-05-29T09:22:00,ths,8.02
2022-05-29T09:23:00,ths,12.04
2022-05-29T09:24:00,ths,12.22
2022-05-29T09:25:00,ths,12.15
2022-05-29T09:26:00,ths,8.08
2022-05-29T09:27:00,ths,7.98
2022-05-29T09:28:00,ths,8.65
2022-05-29T09:29:00,ths,8.64
2022-05-29T09:30:00,ths,8.83
2022-05-29T09:31:00,ths,12.87
2022-05-29T09:32:00,ths,12.81
2022-05-29T09:33:00,ths,12.80
2022-05-29T09:34:00,ths,8.73
2022-05-29T09:35:00,ths,8.72
2022-05-29T09:36:00,ths,7.99
2022-05-29T09:37:00,ths,7.98
2022-05-29T09:38:00,ths,7.96
2022-05-29T09:39:00,ths,12.06
2022-05-29T09:40:00,ths,11.95
2022-05-29T09:41:00,ths,11.96
2022-05-29T09:42:00,ths,8.07
2022-05-29T09:43:00,ths,8.07
2022-05-29T09:44:00,ths,7.90
2022-05-29T09:45:00,ths,7.85
2022-05-29T09:46:00,ths,7.84
2022-05-29T09:47:00,ths,7.90
2022-05-29T09:48:00,ths,11.92
2022-05-29T09:49:00,ths,11.97
2022-05-29T09:50:00,ths,7.89
2022-05-29T09:51:00,ths,7.97
2022-05-29T09:52:00,ths,9.32
2022-05-29T09:53:00,ths,8.18
2022-05-29T09:54:00,ths,8.16
2022-05-29T09:55:00,ths,11.98
2022-05-29T09:56:00,ths,11.97
2022-05-29T09:57:00,ths,7.95
2022-05-29T09:58:00,ths,8.00
2022-05-29T09:59:00,ths,7.97
2022-05-29T10:00:00,ths,8.03
2022-05-29T10:01:00,ths,7.78
2022-05-29T10:02:00,ths,7.73
2022-05-29T10:03:00,ths,5.48
2022-05-29T10:04:00,ths,5.25
2022-05-29T10:05:00,ths,5.51
2022-05-29T10:06:00,ths,5.26
2022-05-29T10:07:00,ths,5.17
2022-05-29T10:08:00,ths,5.17
2022-05-29T10:09:00,ths,5.14
2022-05-29T10:10:00,ths,7.66
2022-05-29T10:11:00,ths,7.76
2022-05-29T10:12:00,ths,10.90
2022-05-29T10:13:00,ths,11.07
2022-05-29T10:14:00,ths,10.86
2022-05-29T10:15:00,ths,10.83
2022-05-29T10:16:00,ths,7.80
2022-05-29T10:17:00,ths,7.71
2022-05-29T10:18:00,ths,7.66
2022-05-29T10:19:00,ths,7.65
2022-05-29T10:20:00,ths,7.65
2022-05-29T10:21:00,ths,7.67
2022-05-29T10:22:00,ths,7.63
2022-05-29T10:23:00,ths,7.87
2022-05-29T10:24:00,ths,7.91
2022-05-29T10:25:00,ths,5.11
2022-05-29T10:26:00,ths,5.07
2022-05-29T10:27:00,ths,4.95
2022-05-29T10:28:00,ths,4.93
2022-05-29T10:29:00,ths,4.94
2022-05-29T10:30:00,ths,4.96
2022-05-29T10:31:00,ths,4.95
2022-05-29T10:32:00,ths,4.94
2022-05-29T10:33:00,ths,4.88
2022-05-29T10:34:00,ths,7.45
2022-05-29T10:35:00,ths,7.46
2022-05-29T10:36:00,ths,7.48
2022-05-29T10:37:00,ths,7.49
2022-05-29T10:38:00,ths,7.45
2022-05-29T10:39:00,ths,7.75
2022-05-29T10:40:00,ths,7.77
2022-05-29T10:41:00,ths,7.56
2022-05-29T10:42:00,ths,7.67
2022-05-29T10:43:00,ths,7.65
2022-05-29T10:44:00,ths,7.56
2022-05-29T10:45:00,ths,5.21
2022-05-29T10:46:00,ths,4.97
2022-05-29T10:47:00,ths,4.97
2022-05-29T10:48:00,ths,4.94
2022-05-29T10:49:00,ths,4.90
2022-05-29T10:50:00,ths,4.89
2022-05-29T10:51:00,ths,4.90
2022-05-29T10:52:00,ths,4.94
2022-05-29T10:53:00,ths,4.95
2022-05-29T10:54:00,ths,4.96
2022-05-29T10:55:00,ths,5.43
2022-05-29T10:56:00,ths,4.97
2022-05-29T10:57:00,ths,7.66
2022-05-29T10:58:00,ths,7.66
2022-05-29T10:59:00,ths,10.36
2022-05-29T11:00:00,ths,10.54
2022-05-29T11:01:00,ths,10.61
2022-05-29T11:02:00,ths,10.39
2022-05-29T11:03:00,ths,10.39
2022-05-29T11:04:00,ths,8.29
2022-05-29T11:05:00,ths,7.73
2022-05-29T11:06:00,ths,7.69
2022-05-29T11:07:00,ths,5.08
2022-05-29T11:08:00,ths,5.13
2022-05-29T11:09:00,ths,5.07
2022-05-29T11:10:00,ths,5.06
2022-05-29T11:11:00,ths,5.01
2022-05-29T11:12:00,ths,4.95
2022-05-29T11:13:00,ths,4.94
2022-05-29T11:14:00,ths,4.94
2022-05-29T11:15:00,ths,5.00
2022-05-29T11:16:00,ths,5.00
2022-05-29T11:17:00,ths,5.00
2022-05-29T11:18:00,ths,4.98
2022-05-29T11:19:00,ths,5.04
2022-05-29T11:20:00,ths,5.09
2022-05-29T11:21:00,ths,5.12
2022-05-29T11:22:00,ths,5.16
2022-05-29T11:23:00,ths,5.25
2022-05-29T11:24:00,ths,5.18
2022-05-29T11:25:00,ths,8.08
2022-05-29T11:26:00,ths,7.96
2022-05-29T11:27:00,ths,7.74
2022-05-29T11:28:00,ths,7.72
2022-05-29T11:29:00,ths,8.01
2022-05-29T11:30:00,ths,7.73
2022-05-29T11:31:00,ths,11.04
2022-05-29T11:32:00,ths,11.05
2022-05-29T11:33:00,ths,11.00
2022-05-29T11:34:00,ths,11.09
2022-05-29T11:35:00,ths,8.34
2022-05-29T11:36:00,ths,9.09
2022-05-29T11:37:00,ths,7.78
2022-05-29T11:38:00,ths,10.45
2022-05-29T11:39:00,ths,10.51
2022-05-29T11:40:00,ths,10.45
2022-05-29T11:41:00,ths,10.46
2022-05-29T11:42:00,ths,5.63
2022-05-29T11:43:00,ths,4.91
2022-05-29T11:44:00,ths,4.91
2022-05-29T11:45:00,ths,4.92
2022-05-29T11:46:00,ths,4.96
2022-05-29T11:47:00,ths,4.95
2022-05-29T11:48:00,ths,5.00
2022-05-29T11:49:00,ths,4.95
2022-05-29T11:50:00,ths,4.89
2022-05-29T11:51:00,ths,4.87
2022-05-29T11:52:00,ths,5.00
2022-05-29T11:53:00,ths,4.98
2022-05-29T11:54:00,ths,4.97
2022-05-29T11:55:00,ths,4.99
2022-05-29T11:56:00,ths,4.88
2022-05-29T11:57:00,ths,4.92
2022-05-29T11:58:00,ths,7.96
2022-05-29T11:59:00,ths,7.83
2022-05-29T12:00:00,ths,7.81
2022-05-29T12:01:00,ths,7.79
2022-05-29T12:02:00,ths,8.01
2022-05-29T12:03:00,ths,7.97
2022-05-29T12:04:00,ths,7.79
2022-05-29T12:05:00,ths,7.82
2022-05-29T12:06:00,ths,4.98
2022-05-29T12:07:00,ths,8.37
2022-05-29T12:08:00,ths,8.40
2022-05-29T12:09:00,ths,8.30
2022-05-29T12:10:00,ths,8.36
2022-05-29T12:11:00,ths,8.41
2022-05-29T12:12:00,ths,6.01
2022-05-29T12:13:00,ths,5.01
2022-05-29T12:14:00,ths,5.12
2022-05-29T12:15:00,ths,5.07
2022-05-29T12:16:00,ths,4.98
2022-05-29T12:17:00,ths,4.97
2022-05-29T12:18:00,ths,10.75
2022-05-29T12:19:00,ths,10.76
2022-05-29T12:20:00,ths,10.73
2022-05-29T12:21:00,ths,10.72
2022-05-29T12:22:00,ths,8.52
2022-05-29T12:23:00,ths,7.89
2022-05-29T12:24:00,ths,7.85
2022-05-29T12:25:00,ths,8.08
2022-05-29T12:26:00,ths,11.15
2022-05-29T12:27:00,ths,8.54
2022-05-29T12:28:00,ths,7.88
2022-05-29T12:29:00,ths,7.76
2022-05-29T12:30:00,ths,7.67
2022-05-29T12:31:00,ths,7.91
2022-05-29T12:32:00,ths,7.71
2022-05-29T12:33:00,ths,4.92
2022-05-29T12:34:00,ths,4.92
2022-05-29T12:35:00,ths,4.87
2022-05-29T12:36:00,ths,8.19
2022-05-29T12:37:00,ths,8.24
2022-05-29T12:38:00,ths,8.19
2022-05-29T12:39:00,ths,8.16
2022-05-29T12:40:00,ths,8.19
2022-05-29T12:41:00,ths,11.23
2022-05-29T12:42:00,ths,7.75
2022-05-29T12:43:00,ths,7.74
2022-05-29T12:44:00,ths,7.78
2022-05-29T12:45:00,ths,7.82
2022-05-29T12:46:00,ths,7.83
2022-05-29T12:47:00,ths,7.82
2022-05-29T12:48:00,ths,8.07
2022-05-29T12:49:00,ths,8.01
2022-05-29T12:50:00,ths,4.87
2022-05-29T12:51:00,ths,4.88
2022-05-29T12:52:00,ths,7.33
2022-05-29T12:53:00,ths,7.86
2022-05-29T12:54:00,ths,7.33
2022-05-29T12:55:00,ths,7.26
2022-05-29T12:56:00,ths,7.26
2022-05-29T12:57:00,ths,7.21
2022-05-29T12:58:00,ths,5.00
2022-05-29T12:59:00,ths,5.05
2022-05-29T13:00:00,ths,10.81
2022-05-29T13:01:00,ths,10.77
2022-05-29T13:02:00,ths,10.75
2022-05-29T13:03:00,ths,14.11
2022-05-29T13:04:00,ths,11.92
2022-05-29T13:05:00,ths,11.34
2022-05-29T13:06:00,ths,11.31
2022-05-29T13:07:00,ths,8.68
2022-05-29T13:08:00,ths,11.62
2022-05-29T13:09:00,ths,8.04
2022-05-29T13:10:00,ths,7.99
2022-05-29T13:11:00,ths,7.91
2022-05-29T13:12:00,ths,10.71
2022-05-29T13:13:00,ths,10.74
2022-05-29T13:14:00,ths,8.01
2022-05-29T13:15:00,ths,7.96
2022-05-29T13:16:00,ths,7.95
2022-05-29T13:17:00,ths,8.05
2022-05-29T13:18:00,ths,7.96
2022-05-29T13:19:00,ths,8.12
2022-05-29T13:20:00,ths,5.58
2022-05-29T13:21:00,ths,4.94
2022-05-29T13:22:00,ths,4.88
2022-05-29T13:23:00,ths,4.90
2022-05-29T13:24:00,ths,7.78
2022-05-29T13:25:00,ths,7.96
2022-05-29T13:26:00,ths,7.94
2022-05-29T13:27:00,ths,7.70
2022-05-29T13:28:00,ths,7.76
2022-05-29T13:29:00,ths,11.08
2022-05-29T13:30:00,ths,11.36
2022-05-29T13:31:00,ths,8.59
2022-05-29T13:32:00,ths,8.31
2022-05-29T13:33:00,ths,8.46
2022-05-29T13:34:00,ths,11.33
2022-05-29T13:35:00,ths,8.64
2022-05-29T13:36:00,ths,7.84
2022-05-29T13:37:00,ths,10.75
2022-05-29T13:38:00,ths,10.70
2022-05-29T13:39:00,ths,10.79